This is the latest recevied weather packets stored in our database for station/object WX2NJ-13. If no packets are shown the sender has not sent any weather packets the latest 10 day(s).
| Time | Temp. | Humidity | Pressure | Rain* | Wind** | Luminosity | Snow |
|---|---|---|---|---|---|---|---|
| 1778063915 | 15.56° C | 83% | 1011.7 hPa | 0 mm | 0.89 m/s, 166° | - | - |
| 1778063616 | 15.56° C | 83% | 1011.7 hPa | 0 mm | 0.45 m/s, 184° | - | - |
| 1778063317 | 15.56° C | 83% | 1011.6 hPa | 0 mm | 1.34 m/s, 167° | - | - |
| 1778063016 | 15.56° C | 83% | 1011.6 hPa | 0 mm | 0.45 m/s, 160° | - | - |
| 1778062717 | 15.56° C | 83% | 1011.5 hPa | 0 mm | 0.45 m/s, 125° | - | - |
| 1778062419 | 15.56° C | 83% | 1011.4 hPa | 0 mm | 0.45 m/s, 160° | - | - |
| 1778062117 | 15.56° C | 83% | 1011.4 hPa | 0 mm | 0.45 m/s, 159° | - | - |
| 1778061819 | 15.56° C | 83% | 1011.4 hPa | 0 mm | 0.45 m/s, 152° | - | - |
| 1778061520 | 15.56° C | 83% | 1011.4 hPa | 0 mm | 0.45 m/s, 188° | - | - |
| 1778061219 | 15.56° C | 83% | 1011.4 hPa | 0 mm | 1.34 m/s, 129° | - | - |
| 1778060920 | 15.56° C | 83% | 1011.3 hPa | 0 mm | 0 m/s | - | - |
| 1778060621 | 15.56° C | 84% | 1011.4 hPa | 0 mm | 0.89 m/s, 232° | - | - |
| 1778060320 | 15.56° C | 84% | 1011.4 hPa | 0 mm | 0 m/s | - | - |
| 1778060022 | 15.56° C | 84% | 1011.4 hPa | 0 mm | 0 m/s | - | - |
| 1778059723 | 15.56° C | 84% | 1011.4 hPa | 0 mm | 0.89 m/s, 148° | - | - |
| 1778059422 | 15.56° C | 84% | 1011.4 hPa | 0 mm | 0.89 m/s, 152° | - | - |
| 1778059123 | 15.56° C | 84% | 1011.5 hPa | 0 mm | 0 m/s | - | - |
| 1778058825 | 15.56° C | 84% | 1011.6 hPa | 0 mm | 1.34 m/s, 177° | - | - |
| 1778058523 | 15.56° C | 84% | 1011.6 hPa | 0 mm | 0.45 m/s, 169° | - | - |
| 1778058225 | 15.56° C | 83% | 1011.7 hPa | 0 mm | 0 m/s | - | - |
| 1778057926 | 15.56° C | 84% | 1011.8 hPa | 0 mm | 0 m/s | - | - |
| 1778057625 | 15.56° C | 83% | 1011.7 hPa | 0 mm | 0.89 m/s, 180° | - | - |
| 1778057326 | 15.56° C | 83% | 1011.8 hPa | 0 mm | 0.45 m/s, 114° | - | - |
| 1778057027 | 15.56° C | 83% | 1011.8 hPa | 0 mm | 1.34 m/s, 176° | - | - |
| 1778056726 | 15.56° C | 83% | 1011.8 hPa | 0 mm | 0 m/s | - | - |
* Rain latest hour (hover to see other rain measurements)
** Current wind speed in m/s (hover to see current wind gust speed)